Sitka, AK

7:09 AM AKST on November 23, 2017 (GMT -0900)
Sitka Rocky Gutierrez

Weather History for PASI - June, 2013

Change the Weather History Date:

Sunday, June 30, 2013

  Actual Average Record
Temperature  
Mean Temperature 62 °F -  
Max Temperature 66 °F 59 °F 72 °F (1988)
Min Temperature 57 °F 49 °F 43 °F (1955)
Degree Days  
Heating Degree Days 4    
Growing Degree Days 12 (Base 50)    
Moisture  
Dew Point 58 °F    
Average Humidity 90    
Maximum Humidity 100    
Minimum Humidity 78    
Precipitation  
Precipitation 0.00 in - - ()
Sea Level Pressure  
Sea Level Pressure 30.04 in    
Wind  
Wind Speed 4 mph (SW)    
Max Wind Speed 9 mph    
Max Gust Speed -    
Visibility 10 miles    
Events      
Averages and records for this station are not official NWS values.
T = Trace of Precipitation, MM = Missing Value Source: NWS Daily Summary

Daily Weather History Graph

Daily Weather History Graph

Search for Another Location

Airport or City:

Trip Planner

Search our weather history database for the weather conditions in past years. The results will help you decide how hot, cold, wet, or windy it might be!

Date:

Astronomy

Jun. 30, 2013 Rise Set
Actual Time 4:11 AM AKDT 9:58 PM AKDT
Civil Twilight 3:04 AM AKDT 11:05 PM AKDT
Nautical Twilight 1:37 AM AKDT 12:32 AM AKDT
Astronomical Twilight Sun does not rise Sun does not rise
Moon 12:18 AM AKDT (6/30) 2:24 PM AKDT (6/30)
Length of Visible Light 20h 01m
Length of Day
17h 47m
Last Quarter, 44% of the Moon is Illuminated
Jun 30
Last Quarter
Jul 7
New
Jul 15
First Quarter
Jul 22
Full
Jul 29
Last Quarter

Hourly Weather History & Observations

Time (AKDT) Temp. Dew Point Humidity Pressure Visibility Wind Dir Wind Speed Gust Speed Precip Events Conditions
12:53 AM 59.0 °F 57.9 °F 96% 30.02 in 10.0 mi East 4.6 mph - 0.00 in   Overcast
1:18 AM 57.2 °F 57.2 °F 100% 30.03 in 10.0 mi South 3.5 mph - N/A   Overcast
1:53 AM 57.9 °F 57.9 °F 100% 30.03 in 10.0 mi SSW 5.8 mph - N/A   Overcast
2:53 AM 57.9 °F 57.9 °F 100% 30.05 in 10.0 mi Calm Calm - N/A   Overcast
3:09 AM 57.2 °F 57.2 °F 100% 30.05 in 10.0 mi WSW 3.5 mph - N/A   Overcast
3:16 AM 57.2 °F 57.2 °F 100% 30.05 in 10.0 mi Calm Calm - N/A   Overcast
3:34 AM 59.0 °F 57.2 °F 94% 30.05 in 10.0 mi Calm Calm - N/A   Overcast
3:53 AM 57.9 °F 57.0 °F 97% 30.06 in 10.0 mi WSW 5.8 mph - N/A   Overcast
4:53 AM 57.9 °F 57.0 °F 97% 30.06 in 10.0 mi SW 9.2 mph - N/A   Overcast
5:53 AM 57.9 °F 57.0 °F 97% 30.06 in 10.0 mi Calm Calm - N/A   Overcast
6:53 AM 57.9 °F 57.0 °F 97% 30.06 in 10.0 mi WNW 8.1 mph - N/A   Overcast
7:53 AM 57.9 °F 57.0 °F 97% 30.06 in 10.0 mi West 3.5 mph - N/A   Overcast
8:53 AM 59.0 °F 57.0 °F 93% 30.06 in 10.0 mi SW 3.5 mph - N/A   Overcast
9:00 AM 59.0 °F 55.4 °F 88% 30.06 in 10.0 mi West 3.5 mph - N/A   Overcast
9:13 AM 59.0 °F 57.2 °F 94% 30.06 in 10.0 mi Calm Calm - N/A   Overcast
9:53 AM 61.0 °F 57.9 °F 90% 30.06 in 10.0 mi South 3.5 mph - N/A   Mostly Cloudy
10:12 AM 60.8 °F 57.2 °F 88% 30.06 in 10.0 mi West 3.5 mph - N/A   Mostly Cloudy
10:53 AM 62.1 °F 57.9 °F 86% 30.06 in 10.0 mi WNW 3.5 mph - N/A   Mostly Cloudy
11:53 AM 60.1 °F 57.0 °F 90% 30.05 in 10.0 mi West 5.8 mph - N/A   Mostly Cloudy
12:53 PM 63.0 °F 57.9 °F 84% 30.05 in 10.0 mi SSW 3.5 mph - N/A   Mostly Cloudy
1:53 PM 63.0 °F 57.9 °F 84% 30.05 in 10.0 mi SW 4.6 mph - N/A   Mostly Cloudy
2:53 PM 64.9 °F 59.0 °F 81% 30.04 in 10.0 mi SW 8.1 mph - N/A   Overcast
3:53 PM 66.0 °F 59.0 °F 78% 30.04 in 10.0 mi SSW 9.2 mph - N/A   Clear
4:53 PM 64.9 °F 59.0 °F 81% 30.04 in 10.0 mi SSW 5.8 mph - N/A   Mostly Cloudy
5:53 PM 64.9 °F 59.0 °F 81% 30.02 in 10.0 mi SW 5.8 mph - N/A   Clear
6:53 PM 63.0 °F 57.0 °F 81% 30.02 in 10.0 mi Variable 4.6 mph - N/A   Mostly Cloudy
7:53 PM 64.0 °F 57.9 °F 80% 30.01 in 10.0 mi SW 5.8 mph - N/A   Scattered Clouds
8:53 PM 63.0 °F 57.9 °F 84% 30.01 in 10.0 mi Calm Calm - N/A   Overcast
9:53 PM 62.1 °F 57.9 °F 86% 30.01 in 10.0 mi Calm Calm - N/A   Mostly Cloudy
10:53 PM 62.1 °F 57.9 °F 86% 30.00 in 10.0 mi Calm Calm - N/A   Overcast
11:53 PM 62.1 °F 59.0 °F 90% 29.99 in 10.0 mi WNW 6.9 mph - N/A   Overcast